Content
SEND FEEDBACK

Daily
Averages
Monthly
Summary
United States of America

JACKSONVILLE, VERMONT


Home > North America > United States > Vermont
Elevation: 244 meters     Latitude: 42 44N     Longitude: 072 44W

WEATHER
 
SELECT A DAY
Number of Records: 201,608;   Date Range: 10/28/95 - 12/17/14
 
SHARE

PRINT THIS DATA

[ ← Previous Day ]
WEATHER ALMANAC - 7 JUNE, 2014
[ Next Day → ]
[ °F ]   °C
Weather ElementAverageHighLow
Temperature15.3 °C26.1 °C (3:52 pm)8.3 °C (4:38 am)
Dewpoint10.4 °C13.9 °C (8:52 pm)7.8 °C (4:38 am)
Humidity78.3 %100 % (6:52 am)36 % (4:52 pm)
Barometer1014.9 hPa1016.3 hPa (6:52 am)1012.9 hPa (5:52 pm)
Wind Speed2.3 km/h11.1 km/h (4:52 pm)
Weather ElementAverage
Visibility11.1 km
Wind DirectionNNE (25.4 °)

Weather ElementTotal
Precipitation---
Heating Degree Days1.2 (Base 18.3)
Growing Degree Days7.2 (Base 10)
Averaged from 28 records on 7 June, 2014
WEATHER CONDITIONS BREAKOUT
WIND DIRECTION BREAKOUT
WEATHER BY HOUR - 7 JUNE, 2014
[ °F ]   °C
Local TimeTemperatureDewpointHumidityBarometerVisibilityWind DirectionWind SpeedGust SpeedPrecipitationEventsConditions
1:52 AM11.1 °C10 °C93 %1014.9 hPa16.1 kmCalmClear
2:52 AM9.4 °C8.9 °C97 %1014.9 hPa16.1 kmCalmClear
3:52 AM8.9 °C8.3 °C96 %1015.2 hPa16.1 kmESE (110°)5.6 km/hClear
4:38 AM8.3 °C7.8 °C97 %1015.2 hPa16.1 kmCalmScattered Clouds
5:04 AM8.3 °C7.8 °C97 %1015.2 hPa2.9 kmCalmOvercast
5:08 AM8.9 °C8.3 °C96 %1015.2 hPa1.3 kmCalmOvercast
5:17 AM8.9 °C8.3 °C96 %1015.2 hPa0.3 kmCalmFogFog
5:34 AM8.9 °C8.3 °C96 %1015.6 hPa1.6 kmCalmMist
5:44 AM8.9 °C8.3 °C96 %1015.6 hPa0.3 kmCalmFogFog
5:52 AM8.9 °C8.3 °C96 %1015.9 hPa0.3 kmCalmFogFog
6:52 AM9.4 °C9.4 °C100 %1016.3 hPa0.3 kmCalmFogFog
6:57 AM9.4 °C9.4 °C100 %1015.9 hPa1.6 kmCalmMist
6:59 AM10 °C10 °C100 %1015.9 hPa3.2 kmCalmMostly Cloudy
7:08 AM10.6 °C10 °C96 %1015.9 hPa11.3 kmCalmMostly Cloudy
7:16 AM10.6 °C10.6 °C100 %1015.9 hPa16.1 kmCalmScattered Clouds
11:52 AM23.3 °C13.3 °C53 %1015.6 hPa16.1 kmVariable7.4 km/hPartly Cloudy
12:52 PM23.9 °C11.1 °C44 %1015.2 hPa16.1 kmVariable9.3 km/hScattered Clouds
1:52 PM24.4 °C11.1 °C43 %1015.2 hPa16.1 kmVariable9.3 km/hClear
2:52 PM25.6 °C11.7 °C42 %1014.9 hPa16.1 kmVariable7.4 km/hClear
3:52 PM26.1 °C11.7 °C40 %1014.2 hPa16.1 kmVariable7.4 km/hScattered Clouds
4:52 PM26.1 °C10 °C36 %1013.5 hPa16.1 kmNNW (330°)11.1 km/hMostly Cloudy
5:52 PM26.1 °C11.1 °C39 %1012.9 hPa16.1 kmWest (270°)5.6 km/hPartly Cloudy
6:52 PM25.6 °C11.7 °C42 %1012.9 hPa16.1 kmCalmClear
7:52 PM22.2 °C13.3 °C57 %1013.2 hPa16.1 kmCalmClear
8:52 PM17.8 °C13.9 °C78 %1013.9 hPa16.1 kmCalmClear
9:52 PM15.6 °C13.3 °C86 %1014.9 hPa16.1 kmCalmClear
10:52 PM15.6 °C13.3 °C86 %1015.6 hPa16.1 kmCalmMostly Cloudy
11:52 PM14.4 °C12.8 °C90 %1015.2 hPa16.1 kmCalmClear
Hourly data recorded from KAQW, located 0 kilometers away from Jacksonville, Vermont







STORIES FROM OUR PARTNERS